Find Starlink 35053

NORAD ID: 65609 Int'l Des: 2025-207 Owner: SPXS Country: US Constellation: starlink operational
LEOCIRCULARRETROGRADESSO

Live Position

Loading 3D Globe...

About Starlink 35053

Description loading...

Upcoming Passes

Passes for default location (London). Set your location on the main map for personalized predictions.

Altitude History

Loading altitude history...

Two-Line Element Set

1 65609U 25207T 26110.08748191 .00004803 00000-0 33684-3 0 9992
2 65609 97.6023 179.5200 0001423 133.9026 226.2318 15.05648059 34333
Epoch: Apr 20, 2026 • Age: 19 hours

Current Status

Altitude 554.2 km
Velocity 7.58 km/s
Sub-Earth Point -5.92°S, 13.93°E
Launch Date Sep 13, 2025
Age 0.5 years
Type internet

Technical Details

Classification Payload
Mass 575.00 kg
Dry Mass 530.00 kg
Total Mass 575.00 kg
Length 0.30 m
Diameter 4.10 m
Span 29.00 m
Shape Box + pan
Manufacturer SPXS
Bus Type Starlink V2MO
Phase Status In Orbit
Owner/State SPXS/US

Most Searched